Miscellaneous Local Product
Issued by NWS North Platte, NE

Home | Current Version | Previous Version | Text Only | Print | Product List | Glossary On
Versions: 1 2 3 4 5 6 7 8 9 10 11 12 13 14 15 16 17 18 19 20 21 22 23 24 25 26 27 28 29 30 31 32 33 34 35 36 37 38 39 40 41 42 43 44 45 46 47 48 49 50
000
AXUS43 KLBF 200810
MISLBF


WESTERN AND NORTH CENTRAL NEBRASKA HOURLY WEATHER ROUNDUP
NATIONAL WEATHER SERVICE NORTH PLATTE NE
300 AM CDT SAT SEP 20 2014

***STATIONS NOT REPORTING VARIABLES SUCH AS SKY/WEATHER OR
PRESSURE ARE PROVIDED BY THE NEBRASKA DEPARTMENT OF
ROADS...RAWS...AND APRS NETWORKS...AND ARE NOT UNDER
NATIONAL WEATHER SERVICE QUALITY CONTROL***

...OBSERVATIONS IN AND NEAR THE EASTERN PANHANDLE OF NEBRASKA...

CITY           SKY/WX    TMP DP  RH WIND       PRES   REMARKS
PINE RIDGE     PTCLDY    52  49  89 CALM      30.02R
CHADRON        PTCLDY    52  49  89 W6        30.03R
ALLIANCE       CLEAR     58  51  78 N12       30.03R
SIDNEY         CLEAR     59  53  80 N8        30.02R
WHITECLAY        N/A     48  46  90 CALM        N/A
RUSHVILLE        N/A     57  46  65 NE7         N/A
LISCO            N/A     69  53  57 CALM        N/A
BIG SPRINGS      N/A     60  56  86 CALM        N/A
$$

...OBSERVATIONS IN NORTH CENTRAL NEBRASKA...

CITY           SKY/WX    TMP DP  RH WIND       PRES   REMARKS
VALENTINE      PTCLDY    59  54  83 NW8       29.95R
THEDFORD       PTCLDY    66  56  70 CALM      29.93S
AINSWORTH      PTCLDY    60  55  83 NW6       29.94R
O`NEILL        PTCLDY    64  59  83 CALM      29.88R
ORD            MOCLDY    68  64  87 CALM      29.85S
BROKEN BOW     PTCLDY    66  60  81 N6        29.88S
SPRINGVIEW       N/A     59  56  91 CALM        N/A
ROSE             N/A     66  62  86 E3          N/A
NEWPORT          N/A     61  59  91 W6          N/A
COMSTOCK         N/A     70  65  85 CALM        N/A
CHAMBERS         N/A     62  57  83 CALM        N/A
$$

...OBSERVATIONS IN SOUTHWEST NEBRASKA AND FAR NORTHEAST COLORADO...

CITY           SKY/WX    TMP DP  RH WIND       PRES   REMARKS
WRAY           FAIR      69  49  49 N7        29.94S
HOLYOKE        FAIR      64  52  63 NW6       29.96R
IMPERIAL       CLOUDY    67  58  72 W7        29.91R
OGALLALA       PTCLDY    63  59  85 CALM      29.93R
NORTH PLATTE   MOCLDY    67  60  78 CALM      29.88S
MCCOOK         PTCLDY    68  61  78 S6        29.89F
LEXINGTON      CLOUDY    73  61  67 SW8       29.88R
PAXTON           N/A     65  59  82 CALM        N/A
SUTHERLAND       N/A     70  63  78 CALM        N/A
BRADY            N/A     67  60  77 CALM        N/A
GOTHENBURG       N/A     73  57  57 S5          N/A
CALLAWAY         N/A     64  61  89 CALM        N/A
$$

...SOME WEATHER OBSERVATIONS FROM AROUND THE REGION...

CITY           SKY/WX    TMP DP  RH WIND       PRES   REMARKS
DENVER         PTCLDY    63  46  54 SW8       30.11R
LARAMIE        CLEAR     47  39  74 NE9       30.25R
CHEYENNE       CLEAR     61  41  47 NW12      30.17R
SCOTTSBLUFF    CLEAR     62  50  64 N7        30.04R
RAPID CITY     MOCLDY    65  47  52 NW13      30.01R
PIERRE         PTCLDY    60  55  83 W8        29.87R
WINNER         FAIR      63  56  78 W8        29.91R
SIOUX FALLS    PTCLDY    67  58  72 W7        29.80R
OMAHA          TSTM      73  67  81 N6        29.85R
GRAND ISLAND   MOCLDY    75  61  61 SW16      29.86S
KANSAS CITY    PTCLDY    68  66  93 S15       29.93S
WICHITA        PTCLDY    70  67  90 S9        29.97S
HAYS           CLEAR     68  57  68 S13       29.94S
LIBERAL        CLEAR     64  57  77 S7        30.02S
GOODLAND       MOCLDY    67  61  81 S13       29.95F
$$



USA.gov is the U.S. government's official web portal to all federal, state and local government web resources and services.